Location: Napier
(39.4830°S, 176.9170°E)
Time: 02:51:18
(UTC+12:00)

Cosmos 1606 - Pass Details

Date: 15 August 2020
Orbit: 502 x 529 km, 82.5° (Epoch: 19 September)

Event Time Altitude Azimuth Distance (km) Brightness Sun altitude
Rises 18:36:17 0° 19° (NNE) 2,597 6.1 -12.5°
Reaches altitude 10° 18:38:36 10° 31° (NNE) 1,722 5.1 -12.9°
Maximum altitude 18:41:48 27° 90° (E) 1,017 3.6 -13.5°
Enters shadow 18:43:40 18° 132° (SE) 1,304 4.3 -13.9°
